Location: Unspecified
(0.0000°N, 0.0000°E)
Time: 14:16:31
(UTC+00:00)

Amateur Radio Satellites - All Passes

Search period start: 29 May 2015 13:46
Search period end: 30 May 2015 13:46
Location: Unspecified, 0.0000°N, 0.0000°E

Satellite Date Start Highest point End Downlink Frequencies (MHz)
Time Altitude Azimuth
JUGNU 29 May 13:52:24 13:56:58 23° 16° (NNE) 14:01:35 437.505
STARS 29 May 13:56:44 13:58:30 13° 100° (E) 14:00:35 437.465
O/OREOS (USA 219) 29 May 14:11:57 14:15:52 27° 285° (WNW) 14:19:40 437.305
Gurwin Techsat 1B 29 May 14:29:11 14:34:23 53° 258° (WSW) 14:39:31 435.225
KKS-1 29 May 14:32:33 14:36:59 84° 102° (ESE) 14:41:26 437.445
AO-7 29 May 15:02:33 15:10:04 41° 75° (ENE) 15:17:44 29.400- 29.500
BEESAT 3 29 May 15:04:12 15:08:07 58° 112° (ESE) 15:12:05 437.485
SRMSAT 29 May 15:14:28 15:18:39 20° 15° (NNE) 15:22:56 437.500
ITAMSAT 1 29 May 15:18:56 15:21:20 13° 259° (W) 15:23:20 435.822/435.867
STARS 29 May 15:31:08 15:34:52 26° 281° (W) 15:38:29 437.465
JAS-2 29 May 15:32:51 15:40:25 84° 258° (WSW) 15:47:09 435.910
Cosmos 2499 29 May 15:35:18 15:40:02 15° 275° (W) 15:43:51 435.465 / 435.565
HORYU 2 29 May 15:38:40 15:43:06 56° 258° (WSW) 15:47:30 437.375
JUGNU 29 May 15:40:28 15:46:14 59° 21° (NNE) 15:52:00 437.505
BEESAT 2 29 May 15:56:53 16:00:27 29° 293° (WNW) 16:03:59 435.950
AIST 2 29 May 16:02:57 16:07:01 54° 112° (ESE) 16:11:09 435.215
MOZHAYETS 4 29 May 16:20:01 16:24:36 84° 283° (WNW) 16:29:14
AO-7 29 May 16:55:58 17:02:45 27° 256° (WSW) 17:09:10 29.400- 29.500
SRMSAT 29 May 17:02:30 17:08:10 49° 20° (NNE) 17:13:54 437.500
JUGNU 29 May 17:29:39 17:35:17 49° 200° (SSW) 17:40:56 437.505
CUTE-I 29 May 17:48:09 17:53:24 63° 78° (ENE) 17:58:39 437.470
Cosmos 2491 29 May 17:49:12 17:57:35 52° 94° (E) 18:06:04 435.465 / 435.565
CUBESAT XI-V 29 May 18:06:11 18:10:53 78° 282° (WNW) 18:15:37 437.345
Cubesat XI-IV 29 May 18:09:32 18:14:50 71° 258° (WSW) 18:20:07 437.490
YUBILEINY 29 May 18:11:43 18:20:20 71° 86° (E) 18:29:04 435.215
PRISM 29 May 18:19:51 18:23:57 56° 101° (ESE) 18:28:05 437.425
M-CUBED/EXP-1 PRIME 29 May 18:30:45 18:33:34 23° 106° (ESE) 18:36:38 437.505
RS-15 29 May 18:33:24 18:45:31 80° 69° (ENE) 18:57:51 29.354- 29.394
AUBIESAT-1 29 May 18:36:16 18:39:06 24° 106° (ESE) 18:42:12 437.475
SRMSAT 29 May 18:51:33 18:57:24 61° 201° (SSW) 19:03:17 437.500
STRAND 1 29 May 18:52:10 18:57:17 68° 281° (WNW) 19:02:25 437.568
BRITE-PL 29 May 19:00:26 19:03:57 22° 78° (ENE) 19:07:50 437.365/2234.400
AIST 1 29 May 19:15:55 19:20:10 77° 94° (E) 19:24:24
JUGNU 29 May 19:20:22 19:24:38 20° 195° (SSW) 19:28:49 437.505
VERMONT LUNAR 29 May 19:29:12 19:31:29 18° 139° (SE) 19:33:50 437.305
DOVE 4 29 May 19:36:12 19:39:46 21° 79° (ENE) 19:43:38 437.250
Cosmos 2504 29 May 19:38:16 19:41:54 15° 85° (E) 19:46:16 435.465 / 435.565
ISS 29 May 19:47:53 19:50:32 23° 306° (NW) 19:53:08 145.825
Cosmos 2491 29 May 19:48:24 19:54:25 19° 276° (W) 19:59:47 435.465 / 435.565
YUBILEINY 29 May 20:13:44 20:17:18 12° 263° (W) 20:19:53 435.215
HO-68 29 May 20:16:56 20:24:08 76° 76° (ENE) 20:31:19 435.675
GOMX 1 29 May 20:25:42 20:30:18 50° 260° (W) 20:35:13 467.674
CINEMA 3 29 May 20:29:52 20:34:26 43° 79° (ENE) 20:39:09 145.822/145.860
PHONESAT 2.4 29 May 20:31:56 20:33:46 14° 140° (SE) 20:35:44 2401.200-2431.200
CANX-2 29 May 20:36:38 20:40:49 50° 259° (W) 20:44:57 2200.000
BRITE-PL 29 May 20:38:58 20:42:23 19° 262° (W) 20:45:46 437.365/2234.400
CUTE 1.7 + AOD 2 29 May 20:39:44 20:43:55 52° 259° (W) 20:48:04 437.475
SRMSAT 29 May 20:42:06 20:46:50 24° 196° (SSW) 20:51:33 437.500
RS-15 29 May 20:50:54 20:58:31 17° 243° (WSW) 21:04:53 29.354- 29.394
ZACube-1 29 May 20:52:58 20:56:12 20° 80° (E) 20:59:37 437.345
SEEDS 29 May 20:58:06 21:02:02 35° 259° (W) 21:05:54 437.485
Oscar 11 29 May 20:58:10 21:02:21 46° 79° (E) 21:06:31 145.826/435.025
CUBEBUG 2 29 May 21:02:30 21:07:03 49° 79° (ENE) 21:11:39 437.445
VERMONT LUNAR 29 May 21:05:58 21:08:37 22° 318° (NW) 21:11:12 437.305
COMPASS 1 29 May 21:06:46 21:10:39 35° 259° (W) 21:14:28 437.405
JUGNU 29 May 21:12:59 21:14:29 11° 186° (S) 21:15:55 437.505
DOVE 4 29 May 21:13:39 21:17:23 22° 261° (W) 21:21:05 437.250
AAUSAT CUBESAT 2 29 May 21:16:33 21:20:19 31° 259° (W) 21:23:58 437.432
TIGRISAT 29 May 21:19:55 21:21:09 11° 100° (E) 21:22:43 435.000
DELFI C3 29 May 21:24:15 21:28:19 77° 79° (E) 21:32:20 145.870
Cosmos 2504 29 May 21:28:08 21:35:06 50° 265° (W) 21:42:26 435.465 / 435.565
PCSat 29 May 21:31:53 21:35:59 23° 111° (ESE) 21:40:16 145.827
UNISAT 6 29 May 21:39:32 21:42:57 24° 101° (E) 21:46:29 437.425
UWE-3 29 May 21:43:44 21:48:19 58° 259° (W) 21:52:55 435.000/436.395/437.385
FUNcube-1 29 May 21:46:00 21:50:35 76° 259° (W) 21:55:10 145.935
QB50P2 29 May 21:49:04 21:50:18 11° 100° (E) 21:51:51 145.880/145.840
HUMSAT D 29 May 21:58:32 22:02:49 60° 79° (E) 22:07:05 437.325/437.525
DUCHIFAT 1 29 May 21:59:01 22:01:23 15° 100° (E) 22:03:59 145.980
POPSAT HIP 1 29 May 21:59:21 22:01:53 16° 100° (E) 22:04:37 437.405
AISAT 29 May 21:59:31 22:03:09 26° 79° (E) 22:06:53 437.250
PHONESAT 2.4 29 May 22:08:36 22:11:51 34° 317° (NW) 22:15:05 2401.200-2431.200
BUGSAT 1 29 May 22:09:33 22:11:24 13° 100° (E) 22:13:31 437.445
50 SAT 29 May 22:14:42 22:18:35 47° 79° (E) 22:22:27 437.505
ANTELSAT 29 May 22:22:08 22:26:22 75° 282° (WNW) 22:30:38 437.575/2403.000
UKube-1 29 May 22:23:56 22:28:12 61° 258° (WSW) 22:32:28 .
ZACube-1 29 May 22:29:03 22:32:26 20° 260° (W) 22:35:38 437.345
SRMSAT 29 May 22:34:24 22:36:48 12° 188° (S) 22:39:07 437.500
DX 1 29 May 22:37:19 22:41:19 35° 259° (WSW) 22:45:15 434.975-435.025
QB50P1 29 May 22:41:24 22:45:37 72° 101° (ESE) 22:49:50 145.935-145.965
GONETS M04 29 May 22:44:13 22:49:11 18° 84° (E) 22:54:52
POLYITAN 1 29 May 22:45:02 22:49:16 83° 99° (E) 22:53:29 437.675
CUBEBUG 1 29 May 22:52:18 22:56:34 59° 79° (ENE) 23:00:50 437.445
TIGRISAT 29 May 22:54:13 22:57:49 26° 281° (W) 23:01:21 435.000
VELOX 1 29 May 23:02:43 23:06:51 39° 259° (WSW) 23:10:58 145.980
JUGNU 29 May 23:04:32 23:04:39 10° 176° (S) 23:04:49 437.505
DANDE 29 May 23:04:45 23:08:10 18° 76° (ENE) 23:11:14 436.750
NANOSAT C BR1 29 May 23:11:52 23:15:50 39° 281° (W) 23:19:46 145.865
PCSat 29 May 23:14:59 23:19:18 23° 291° (WNW) 23:23:27 145.827
CUSAT 1 29 May 23:15:06 23:19:24 35° 80° (E) 23:22:48 437.405
ESTCUBE 1 29 May 23:16:59 23:21:20 50° 259° (W) 23:25:39 437.505/2401.250
UNISAT 6 29 May 23:17:39 23:19:39 13° 280° (W) 23:21:21 437.425
SPROUT 29 May 23:20:20 23:23:56 27° 79° (E) 23:27:37 437.525
QB50P2 29 May 23:22:29 23:26:06 27° 281° (W) 23:29:38 145.880/145.840
TISAT 1 29 May 23:32:09 23:35:37 26° 79° (E) 23:39:10 437.305
DUCHIFAT 1 29 May 23:33:55 23:37:05 20° 280° (W) 23:40:07 145.980
POPSAT HIP 1 29 May 23:34:32 23:37:38 19° 280° (W) 23:40:35 437.405
AISAT 29 May 23:37:20 23:39:38 13° 260° (W) 23:41:39 437.250
BUGSAT 1 29 May 23:43:23 23:46:46 23° 281° (W) 23:50:02 437.445
SO-50 29 May 23:53:29 23:57:29 34° 112° (ESE) 00:01:38 436.795
Oscar 19 30 May 00:13:43 00:16:49 17° 101° (E) 00:20:12 437.125/150
BEESAT 30 May 00:20:16 00:21:31 11° 80° (E) 00:23:11 436.000
SWISSCUBE 30 May 00:27:40 00:30:35 17° 79° (E) 00:33:43 437.505
GONETS M04 30 May 00:37:34 00:46:01 54° 266° (W) 00:54:24
O/OREOS (USA 219) 30 May 00:44:11 00:47:29 21° 74° (ENE) 00:50:57 437.305
DANDE 30 May 00:47:45 00:51:13 18° 270° (W) 00:53:58 436.750
JUGNU 30 May 00:50:56 00:54:38 17° 167° (SSE) 00:58:27 437.505
SPROUT 30 May 00:58:05 00:59:55 12° 260° (W) 01:01:26 437.525
TISAT 1 30 May 01:09:29 01:11:17 12° 260° (W) 01:12:48 437.305
Gurwin Techsat 1B 30 May 01:28:38 01:33:03 28° 101° (ESE) 01:37:37 435.225
SO-50 30 May 01:36:39 01:37:59 11° 296° (WNW) 01:38:57 436.795
Cosmos 2499 30 May 01:48:04 01:55:17 75° 87° (E) 02:03:05 435.465 / 435.565
ITUPSAT 1 30 May 01:49:04 01:53:37 43° 258° (WSW) 01:58:06 437.325
Oscar 19 30 May 01:51:41 01:56:04 28° 281° (WNW) 02:00:21 437.125/150
BEESAT 30 May 01:54:55 01:59:18 35° 258° (WSW) 02:03:35 436.000
SWISSCUBE 30 May 02:04:25 02:08:19 24° 259° (WSW) 02:12:04 437.505
STARS 30 May 02:06:52 02:09:52 19° 79° (E) 02:13:02 437.465
ITAMSAT 1 30 May 02:11:42 02:16:55 80° 283° (WNW) 02:22:10 435.822/435.867
SRMSAT 30 May 02:14:01 02:17:22 15° 168° (SSE) 02:20:48 437.500
BEESAT 2 30 May 02:17:09 02:17:46 10° 65° (ENE) 02:18:40 435.950
O/OREOS (USA 219) 30 May 02:23:54 02:26:47 16° 253° (WSW) 02:29:28 437.305
JUGNU 30 May 02:38:37 02:44:08 38° 161° (SSE) 02:49:41 437.505
KKS-1 30 May 02:45:17 02:49:44 64° 259° (W) 02:54:08 437.445
BEESAT 3 30 May 02:58:45 03:02:40 64° 68° (ENE) 03:06:33 437.485
JAS-2 30 May 03:05:32 03:10:52 48° 103° (ESE) 03:16:54 435.910
Gurwin Techsat 1B 30 May 03:09:12 03:12:55 19° 281° (W) 03:16:24 435.225
AO-7 30 May 03:28:13 03:36:28 66° 105° (ESE) 03:44:46 29.400- 29.500
STARS 30 May 03:42:58 03:46:11 19° 259° (W) 03:49:15 437.465
HORYU 2 30 May 03:51:47 03:55:51 36° 281° (WNW) 03:59:54 437.375
BEESAT 2 30 May 03:52:23 03:55:45 26° 247° (WSW) 03:59:02 435.950
SRMSAT 30 May 04:01:49 04:07:09 33° 162° (SSE) 04:12:30 437.500
AIST 2 30 May 04:01:54 04:05:58 69° 68° (ENE) 04:10:00 435.215
JUGNU 30 May 04:27:16 04:33:15 78° 338° (NNW) 04:39:17 437.505
MOZHAYETS 4 30 May 04:37:12 04:41:39 47° 259° (W) 04:46:03
CUTE-I 30 May 04:51:08 04:52:48 12° 101° (E) 04:54:55 437.470
YUBILEINY 30 May 04:53:03 04:57:13 15° 97° (E) 05:02:11 435.215
JAS-2 30 May 04:54:13 04:56:13 11° 277° (W) 04:57:44 435.910
Cubesat XI-IV 30 May 05:10:28 05:14:28 22° 101° (ESE) 05:18:40 437.490
AO-7 30 May 05:24:25 05:29:12 15° 284° (WNW) 05:33:16 29.400- 29.500
STRAND 1 30 May 05:47:41 05:50:58 18° 79° (E) 05:54:29 437.568
SRMSAT 30 May 05:50:27 05:56:29 87° 161° (SSE) 06:02:30 437.500
RS-15 30 May 06:17:03 06:27:58 67° 112° (ESE) 06:38:44 29.354- 29.394
JUGNU 30 May 06:17:17 06:22:28 30° 342° (NNW) 06:27:36 437.505
Cosmos 2491 30 May 06:22:38 06:31:26 84° 265° (W) 06:40:12 435.465 / 435.565
PRISM 30 May 06:23:41 06:27:45 63° 78° (ENE) 06:31:47 437.425
CUBESAT XI-V 30 May 06:25:07 06:29:29 42° 259° (W) 06:33:47 437.345
CUTE-I 30 May 06:27:43 06:32:47 44° 282° (WNW) 06:37:52 437.470
M-CUBED/EXP-1 PRIME 30 May 06:32:21 06:36:24 31° 76° (ENE) 06:40:16 437.505
AUBIESAT-1 30 May 06:37:24 06:41:23 31° 76° (ENE) 06:45:10 437.475
YUBILEINY 30 May 06:45:23 06:54:06 62° 274° (W) 07:02:40 435.215
Cubesat XI-IV 30 May 06:50:06 06:54:27 24° 281° (WNW) 06:58:38 437.490
VERMONT LUNAR 30 May 07:02:24 07:03:31 12° 41° (NE) 07:04:47 437.305
GOMX 1 30 May 07:13:59 07:16:56 17° 98° (E) 07:20:01 467.674
ISS 30 May 07:20:48 07:23:53 39° 234° (SW) 07:26:57 145.825
AIST 1 30 May 07:22:32 07:26:55 73° 266° (W) 07:31:19
STRAND 1 30 May 07:25:47 07:30:04 26° 259° (WSW) 07:34:12 437.568
BRITE-PL 30 May 07:26:50 07:31:48 50° 100° (E) 07:36:27 437.365/2234.400
SEEDS 30 May 07:31:48 07:32:03 10° 100° (E) 07:32:39 437.485
SRMSAT 30 May 07:40:22 07:45:47 35° 341° (NNW) 07:51:09 437.500
Cosmos 2504 30 May 07:47:29 07:54:11 26° 96° (E) 08:00:59 435.465 / 435.565
AAUSAT CUBESAT 2 30 May 07:48:06 07:49:06 11° 100° (E) 07:50:26 437.432
DOVE 4 30 May 07:57:13 08:01:24 36° 100° (E) 08:05:26 437.250
HO-68 30 May 08:08:35 08:15:36 64° 103° (ESE) 08:22:42 435.675
M-CUBED/EXP-1 PRIME 30 May 08:08:53 08:11:00 13° 254° (WSW) 08:12:46 437.505
JUGNU 30 May 08:09:02 08:12:08 14° 349° (N) 08:15:08 437.505
PHONESAT 2.4 30 May 08:11:36 08:12:28 11° 40° (NE) 08:13:30 2401.200-2431.200
AUBIESAT-1 30 May 08:13:50 08:15:55 13° 254° (WSW) 08:17:39 437.475
RS-15 30 May 08:33:11 08:40:27 18° 296° (WNW) 08:46:46 29.354- 29.394
VERMONT LUNAR 30 May 08:37:45 08:40:39 32° 222° (SW) 08:43:33 437.305
CANX-2 30 May 08:43:34 08:47:31 39° 281° (W) 08:51:28 2200.000
CUTE 1.7 + AOD 2 30 May 08:46:34 08:50:32 40° 281° (W) 08:54:30 437.475
CINEMA 3 30 May 08:47:09 08:51:28 71° 101° (E) 08:55:39 145.822/145.860
GOMX 1 30 May 08:51:08 08:55:00 23° 282° (WNW) 08:58:32 467.674
ZACube-1 30 May 09:03:08 09:06:26 24° 100° (E) 09:09:51 437.345
SEEDS 30 May 09:04:05 09:07:44 29° 280° (W) 09:11:22 437.485
Oscar 11 30 May 09:06:53 09:11:07 63° 101° (E) 09:15:24 145.826/435.025
COMPASS 1 30 May 09:11:46 09:15:26 29° 280° (W) 09:19:03 437.405
DX 1 30 May 09:13:09 09:15:01 13° 100° (E) 09:17:11 434.975-435.025
CUBEBUG 2 30 May 09:15:44 09:19:55 73° 101° (ESE) 09:24:04 437.445
AAUSAT CUBESAT 2 30 May 09:21:04 09:24:35 26° 280° (W) 09:28:04 437.432
DELFI C3 30 May 09:24:46 09:28:47 79° 101° (E) 09:32:50 145.870
TIGRISAT 30 May 09:31:14 09:34:38 21° 80° (E) 09:38:11 435.000
SRMSAT 30 May 09:31:58 09:35:29 16° 348° (NNW) 09:38:54 437.500
Cosmos 2504 30 May 09:39:26 09:47:30 40° 274° (W) 09:54:59 435.465 / 435.565
VELOX 1 30 May 09:40:37 09:42:30 13° 100° (E) 09:44:42 145.980
PHONESAT 2.4 30 May 09:47:15 09:50:33 42° 223° (SW) 09:53:51 2401.200-2431.200
UNISAT 6 30 May 09:52:14 09:56:40 41° 79° (ENE) 10:01:06 437.425
QB50P2 30 May 09:54:53 09:57:09 15° 80° (E) 09:59:40 145.880/145.840
UWE-3 30 May 09:56:04 09:59:56 36° 281° (W) 10:03:44 435.000/436.395/437.385
FUNcube-1 30 May 09:56:32 10:00:34 51° 281° (W) 10:04:34 145.935
ESTCUBE 1 30 May 09:57:32 09:58:53 11° 100° (E) 10:00:33 437.505/2401.250
HO-68 30 May 10:00:12 10:03:19 12° 282° (WNW) 10:05:45 435.675
HUMSAT D 30 May 10:04:12 10:08:16 72° 102° (ESE) 10:12:21 437.325/437.525
DUCHIFAT 1 30 May 10:04:40 10:07:36 19° 80° (E) 10:10:43 145.980
POPSAT HIP 1 30 May 10:05:28 10:08:35 20° 79° (E) 10:11:49 437.405
PCSat 30 May 10:06:55 10:12:16 72° 70° (ENE) 10:17:40 145.827
AISAT 30 May 10:11:22 10:15:29 38° 101° (ESE) 10:19:39 437.250
50 SAT 30 May 10:12:26 10:16:04 41° 101° (E) 10:19:44 437.505
BUGSAT 1 30 May 10:12:49 10:14:56 14° 80° (E) 10:17:18 437.445
CUSAT 1 30 May 10:14:40 10:16:21 11° 92° (E) 10:18:49 437.405
UKube-1 30 May 10:33:01 10:37:09 44° 282° (WNW) 10:41:18 .
ANTELSAT 30 May 10:35:30 10:40:05 49° 259° (W) 10:44:36 437.575/2403.000
ZACube-1 30 May 10:40:59 10:42:43 12° 280° (W) 10:44:09 437.345
DX 1 30 May 10:47:28 10:51:09 26° 281° (WNW) 10:54:44 434.975-435.025
QB50P1 30 May 10:47:57 10:52:13 90° 245° (WSW) 10:56:29 145.935-145.965
POLYITAN 1 30 May 10:51:54 10:56:11 77° 258° (WSW) 11:00:29 437.675
CUBEBUG 1 30 May 11:02:34 11:07:00 85° 101° (ESE) 11:11:25 437.445
TIGRISAT 30 May 11:07:44 11:11:14 20° 259° (W) 11:14:33 435.000
VELOX 1 30 May 11:15:09 11:18:57 27° 281° (W) 11:22:40 145.980
GONETS M04 30 May 11:15:12 11:23:03 38° 95° (E) 11:31:05
NANOSAT C BR1 30 May 11:18:24 11:22:13 32° 259° (W) 11:26:00 145.865
SPROUT 30 May 11:28:15 11:32:08 35° 101° (E) 11:36:05 437.525
QB50P2 30 May 11:29:34 11:32:56 22° 259° (W) 11:36:11 145.880/145.840
ESTCUBE 1 30 May 11:31:34 11:35:38 32° 281° (W) 11:39:39 437.505/2401.250
TISAT 1 30 May 11:37:53 11:41:36 31° 101° (E) 11:45:21 437.305
DUCHIFAT 1 30 May 11:40:28 11:43:17 17° 260° (W) 11:45:56 145.980
POPSAT HIP 1 30 May 11:41:37 11:44:20 16° 260° (W) 11:46:49 437.405
DANDE 30 May 11:45:28 11:51:03 80° 95° (E) 11:58:25 436.750
BUGSAT 1 30 May 11:47:12 11:50:17 20° 260° (W) 11:53:16 437.445
JUGNU 30 May 11:49:53 11:52:22 13° 9° (N) 11:54:55 437.505
CUSAT 1 30 May 11:52:30 11:58:24 62° 277° (W) 12:05:50 437.405
SO-50 30 May 12:06:01 12:10:49 68° 68° (ENE) 12:15:28 436.795
ITUPSAT 1 30 May 12:35:02 12:38:16 19° 101° (E) 12:41:43 437.325
BEESAT 30 May 12:40:00 12:43:37 22° 101° (E) 12:47:25 436.000
Oscar 19 30 May 12:45:46 12:50:41 44° 78° (ENE) 12:55:38 437.125/150
SWISSCUBE 30 May 12:48:31 12:52:45 33° 102° (ESE) 12:57:04 437.505
O/OREOS (USA 219) 30 May 12:54:29 12:58:40 36° 105° (ESE) 13:02:51 437.305
ITAMSAT 1 30 May 13:09:34 13:12:39 17° 79° (E) 13:16:02 435.822/435.867
GONETS M04 30 May 13:12:28 13:19:46 28° 275° (W) 13:26:43
SRMSAT 30 May 13:14:06 13:15:59 11° 8° (N) 13:17:56 437.500
